Wind_Speed
18 18 15 13 10 9 8 9 10 11 11 10 8 8 9 9 11 12 13 15 15 14 14 14 12 9 7 7 6 4 3 4 5 5 7 9 12 14 16 18 16 13 15
16 15 14 11 9 8 7 8 9 11 12 11 9 8 9 9 10 12 13 14 14 14 13 11 8 7 7 7 6 5 3 3 4 4 6 10 12 15 15 15 7 14 15
16 9 12 11 9 7 6 7 9 10 12 12 11 10 10 10 11 12 13 14 14 14 13 10 8 7 7 7 6 4 3 3 3 4 8 9 12 14 13 9 10 14 15
12 8 7 11 10 7 5 6 8 9 11 12 12 12 11 12 12 12 13 14 15 14 14 11 10 8 8 8 6 4 3 2 3 5 10 7 8 12 12 12 12 13 14
12 13 4 8 9 8 6 5 5 7 9 11 13 13 13 13 13 14 14 14 15 14 14 13 12 11 10 8 6 4 3 3 4 8 11 10 9 13 13 11 11 12 13
14 9 5 5 7 7 6 5 5 6 8 10 12 13 14 14 14 15 16 16 16 16 15 13 13 12 11 9 7 6 6 6 7 10 5 14 14 10 11 12 10 12 15
14 11 13 3 5 6 6 7 7 6 6 9 12 13 14 15 15 16 16 17 17 16 15 14 14 13 12 11 10 8 8 9 11 11 9 17 11 9 9 13 14 13 15
13 14 12 10 4 3 7 8 9 10 10 10 10 13 14 15 16 17 17 18 18 18 17 16 16 15 15 15 14 12 11 10 12 13 15 15 11 9 10 14 15 15 15
14 13 11 9 10 7 5 8 10 12 12 12 13 14 15 17 18 18 19 19 20 20 20 19 18 18 18 17 16 15 13 12 13 16 16 10 14 13 10 14 16 16 16
16 15 11 8 10 9 11 8 8 12 13 14 14 15 15 16 17 18 20 21 21 22 22 21 21 20 19 18 18 17 16 14 15 16 17 14 16 12 11 15 17 17 17
17 18 21 20 15 13 8 13 9 9 13 15 16 16 17 17 15 16 20 22 23 24 24 23 23 22 22 21 20 19 18 18 16 15 19 15 16 16 14 15 18 18 18
18 20 25 23 17 16 12 16 10 10 11 11 13 13 13 15 16 15 18 21 22 25 24 25 25 24 23 24 22 23 24 21 17 18 22 18 20 17 14 16 20 19 19
19 22 23 23 20 17 16 17 11 15 16 16 14 12 13 13 12 16 20 18 20 24 26 26 29 28 28 29 26 25 26 27 25 23 25 25 23 19 17 17 21 21 21
18 21 20 21 20 18 17 15 17 18 15 10 9 10 10 11 12 14 15 16 18 20 22 24 25 32 31 29 27 27 31 30 26 25 25 27 25 21 19 19 23 23 24
15 17 18 17 18 17 20 18 18 17 18 15 7 5 4 5 10 12 13 14 17 18 22 23 27 27 28 29 32 33 33 30 28 30 26 32 29 26 24 22 26 27 26
13 15 16 17 20 16 13 17 16 17 16 15 16 15 11 9 9 9 9 7 10 13 17 20 25 28 29 33 35 42 42 39 31 26 28 20 25 27 25 23 26 28 27
11 13 16 17 18 18 15 14 17 15 15 17 17 15 14 13 13 12 12 13 13 14 15 19 18 19 27 31 35 36 39 41 39 33 25 19 25 28 29 26 26 29 29
14 15 16 16 18 17 18 14 14 17 15 15 15 16 15 13 13 12 12 15 15 16 17 16 18 22 25 26 25 30 26 30 36 40 32 32 29 30 32 28 26 28 30
14 16 16 18 20 18 15 12 13 14 16 18 19 15 15 16 14 12 16 13 13 14 14 15 14 16 19 23 25 24 24 23 29 17 32 35 40 30 17 26 26 25 28
13 14 16 18 20 17 19 17 12 12 12 13 16 17 18 16 14 13 11 13 14 13 15 17 18 17 18 22 26 27 22 22 23 29 39 43 39 28 12 7 5 14 22
14 15 17 18 20 20 17 16 15 14 11 14 13 15 18 18 18 17 16 15 15 14 16 16 18 18 19 19 21 23 19 18 22 24 28 34 38 22 29 22 24 33 40
11 14 15 17 18 20 19 16 14 11 8 11 12 17 17 17 17 15 17 16 16 14 13 15 16 17 15 15 11 15 4 8 13 17 22 27 31 30 33 43 43 47 43
8 10 11 14 16 19 19 17 17 13 12 15 15 16 16 17 17 17 16 16 15 14 13 14 15 15 15 15 13 8 4 3 12 16 18 21 25 25 32 42 41 42 39
8 9 9 10 13 15 16 17 17 16 13 15 16 13 15 15 16 17 19 18 16 15 14 14 13 14 14 15 15 7 19 17 4 7 11 22 23 23 25 32 33 37 41
8 9 11 11 14 14 15 15 15 14 13 13 15 14 14 14 14 19 17 18 17 16 15 15 15 15 14 15 14 16 15 14 17 6 10 9 22 19 21 26 30 32 34
8 9 9 10 12 13 13 14 14 14 14 14 15 14 15 14 16 17 18 16 16 17 16 16 15 14 14 15 17 15 13 7 11 8 8 13 15 26 27 28 23 30 34
Wind_Direction
120 147 148 145 143 143 149 159 168 170 171 174 171 161 157 151 150 152 151 152 154 154 152 152 153 157 159 153 142 136 102 80 82 87 99 108 111 110 115 114 105 125 127
117 146 152 153 151 150 154 161 175 178 177 180 180 176 172 169 166 166 165 164 164 164 164 162 164 171 175 171 155 150 135 113 111 114 125 125 124 124 130 138 129 139 134
110 144 157 163 166 162 161 167 175 182 184 185 187 190 188 185 184 182 178 178 178 179 180 176 173 175 180 179 172 177 169 156 140 147 143 123 136 142 145 143 155 145 142
101 121 159 174 174 174 170 174 182 187 192 196 195 199 200 197 197 196 194 191 188 187 192 191 187 187 179 178 187 194 201 197 178 180 166 153 142 158 151 137 144 147 149
94 120 154 186 182 185 187 183 199 212 213 211 208 208 209 208 206 206 206 205 203 201 198 201 197 199 195 194 200 215 238 244 237 223 198 192 180 173 166 159 153 156 153
71 70 51 171 192 193 194 206 211 230 237 232 225 221 220 220 217 215 212 213 212 214 216 213 209 206 207 212 218 230 250 256 250 252 258 173 159 175 179 174 165 158 161
59 63 44 107 188 204 209 218 221 231 238 240 236 233 232 231 230 226 223 220 220 221 224 222 219 222 224 230 240 244 251 260 264 267 256 172 180 185 191 181 175 177 180
55 50 34 50 36 252 231 231 234 234 234 234 234 235 236 239 240 238 235 232 229 226 227 230 230 232 236 240 245 248 251 258 266 274 291 196 188 193 204 190 188 189 190
59 57 49 15 8 0 285 249 243 243 244 243 243 241 240 240 240 241 239 238 238 237 235 232 233 236 241 245 247 250 253 254 258 261 265 229 201 200 198 198 194 194 197
64 38 38 26 10 336 322 308 272 257 251 248 246 247 249 248 248 247 244 242 240 241 241 240 240 240 240 243 248 249 249 252 250 253 261 283 203 198 202 202 200 199 201
38 33 36 27 14 350 315 287 269 279 264 251 249 251 250 251 254 261 253 248 244 243 242 242 242 246 247 246 243 246 247 247 249 255 255 262 212 199 203 211 207 206 206
20 22 17 8 1 359 344 336 288 285 276 269 252 249 259 260 253 242 253 260 253 248 246 243 242 242 242 243 250 244 238 242 235 238 251 236 214 208 219 223 216 211 212
17 25 13 4 351 353 338 339 342 322 252 247 238 226 232 244 250 252 252 255 258 246 244 243 239 236 237 239 234 244 240 233 230 222 241 240 213 213 222 225 222 219 217
25 22 11 4 351 2 340 338 339 339 336 348 276 242 248 252 266 269 264 266 252 248 250 248 244 241 239 232 232 231 240 235 225 218 226 230 221 218 225 227 220 221 221
22 19 12 6 5 12 355 355 354 1 2 3 11 53 310 258 266 274 281 281 276 269 257 250 242 240 235 237 234 235 238 230 226 221 227 231 222 218 227 228 221 220 222
23 15 13 12 9 14 18 4 6 6 10 12 19 24 12 355 332 317 317 314 302 298 287 277 269 256 246 240 237 236 236 239 236 236 237 239 227 222 224 228 225 223 223
30 17 13 8 10 15 16 20 18 20 22 22 20 24 15 0 347 338 319 324 321 309 302 306 316 291 276 267 262 260 249 244 246 240 231 236 245 231 229 226 223 224 225
30 24 22 16 12 19 10 22 29 24 30 28 18 21 23 11 5 359 357 355 347 327 333 331 322 319 311 300 302 296 278 282 278 247 242 235 239 243 230 229 226 225 226
29 24 23 20 17 18 18 15 18 36 34 30 20 21 19 11 3 13 10 6 359 350 345 347 344 335 323 320 317 313 305 294 279 322 269 260 248 238 239 235 231 229 235
36 34 29 24 20 22 23 20 18 15 18 36 35 23 23 19 357 358 354 351 352 357 347 344 341 329 330 325 314 306 308 305 284 265 254 266 267 233 337 316 285 249 241
42 32 29 27 23 20 19 21 11 5 19 17 20 27 26 13 6 11 12 6 359 2 351 347 334 333 327 331 330 330 308 294 281 275 273 267 259 274 284 256 279 249 245
37 27 28 24 21 19 10 9 3 6 29 21 30 21 14 19 13 15 12 4 359 356 356 352 348 338 329 348 336 305 302 328 278 297 285 275 275 269 255 244 254 245 250
36 28 25 22 19 19 11 11 9 11 12 20 12 18 13 17 15 13 10 3 359 356 355 350 350 350 329 332 340 319 328 323 337 315 306 286 272 249 256 248 249 244 245
53 46 37 32 33 17 14 14 14 10 12 2 10 355 4 12 13 5 9 4 359 355 352 348 342 342 333 328 338 324 320 320 317 313 311 310 296 275 249 244 238 244 243
63 49 41 42 45 32 24 21 17 12 3 356 2 359 0 358 2 9 3 1 359 355 345 340 340 339 337 328 325 318 315 303 296 285 296 325 322 319 308 277 253 249 248
72 55 45 39 45 33 24 22 20 11 9 5 3 3 2 359 358 357 354 2 357 353 346 341 342 338 339 333 326 323 323 326 331 312 305 300 299 303 307 300 297 275 262
Height
761 765 768 769 772 774 776 778 780 782 784 788 790 792 792 794 794 797 798 799 802 804 805 807 809 811 811 812 812 813 813 813 813 813 813 814 815 816 817 819 821 821 823
762 766 769 772 774 775 777 779 781 783 785 788 791 793 794 796 797 798 799 801 803 805 807 809 810 812 813 813 813 814 814 814 814 814 814 814 816 817 819 819 822 822 824
765 767 770 773 776 777 778 780 782 785 787 789 792 794 796 797 799 800 801 802 804 806 807 809 811 812 813 815 815 815 815 814 814 814 814 815 817 818 819 820 822 824 825
768 770 773 774 777 779 781 783 785 786 788 791 792 795 797 798 800 801 803 803 804 805 808 810 812 813 814 815 816 816 815 815 815 815 817 820 818 819 820 821 823 824 827
770 772 775 777 779 781 783 785 787 789 790 792 793 795 797 798 800 802 803 805 806 807 808 810 811 813 814 815 816 816 816 816 815 815 816 816 817 819 820 822 823 825 828
772 774 777 779 782 783 784 786 788 791 792 793 794 795 797 798 800 802 803 804 806 807 809 810 811 812 813 814 815 815 816 816 814 814 818 816 816 819 820 822 824 826 828
777 776 779 781 783 784 785 787 788 790 791 793 794 796 797 799 800 801 803 804 805 807 809 810 811 812 813 814 815 815 815 815 814 813 817 815 815 818 821 822 824 826 828
780 780 780 782 784 786 786 787 788 789 790 791 792 794 796 798 800 802 803 804 805 806 807 808 810 811 811 812 813 814 814 814 813 812 811 812 814 816 819 821 824 826 828
781 782 784 784 784 785 787 786 788 789 790 791 792 793 794 795 797 799 800 803 804 805 805 806 807 808 809 810 811 811 812 812 812 810 810 810 810 812 815 819 822 824 827
782 784 785 786 786 785 785 786 786 788 789 790 790 792 793 794 795 797 798 799 801 803 804 804 806 805 806 807 808 808 809 810 810 809 808 810 808 811 813 816 819 821 824
783 786 785 785 784 784 786 785 785 786 787 787 788 789 790 791 793 794 795 796 797 799 800 801 802 804 804 803 803 805 806 806 807 807 805 807 805 807 809 812 816 818 821
786 786 786 786 786 785 784 785 784 782 783 783 783 785 787 789 789 792 791 792 793 795 796 798 798 799 799 799 799 799 799 800 801 802 801 802 802 803 805 808 812 815 818
791 790 790 789 788 786 785 782 780 782 779 778 778 779 782 784 787 789 790 790 791 791 792 793 794 793 793 793 793 794 793 791 792 794 795 795 795 797 800 803 808 811 814
797 797 796 794 790 789 786 783 782 779 777 777 777 782 782 783 784 787 787 787 789 789 789 790 788 788 786 787 787 788 787 786 786 785 786 787 789 792 794 796 801 805 808
801 801 800 797 793 790 788 785 784 781 780 780 776 778 778 780 784 784 785 784 784 786 784 785 784 784 784 783 783 781 780 781 779 781 781 780 782 784 787 790 793 797 801
805 804 801 798 795 792 790 788 786 784 782 781 779 778 780 781 783 783 783 783 782 781 781 782 781 781 778 776 774 772 770 769 772 773 775 778 780 780 780 783 787 792 796
807 806 804 800 796 794 792 791 788 786 784 782 782 781 782 783 784 784 784 783 781 780 779 779 778 779 777 775 773 772 768 768 767 768 766 770 774 775 776 777 780 785 790
808 809 806 803 799 796 794 792 791 788 786 785 785 784 786 786 786 785 785 784 781 779 778 777 776 774 773 772 771 768 754 768 765 764 765 762 767 770 772 775 776 778 783
809 810 808 805 801 798 796 795 793 791 790 789 787 786 787 787 786 785 785 783 781 780 779 777 776 774 773 769 766 768 766 765 757 732 760 760 766 769 769 773 774 775 780
808 807 808 808 804 801 798 795 795 795 794 793 792 791 789 787 786 785 783 782 781 779 777 775 775 774 772 770 764 760 761 758 755 757 759 758 758 755 762 758 765 772 774
809 809 808 808 807 805 802 800 798 797 796 795 794 793 792 789 787 787 785 785 783 782 781 780 777 774 771 771 766 760 756 756 756 756 753 748 746 729 727 748 752 761 763
810 809 810 810 808 807 805 803 801 799 798 798 796 796 795 793 791 789 788 787 786 784 782 781 780 776 774 774 772 765 756 750 749 749 747 746 742 737 741 749 751 758 759
813 812 809 810 809 809 808 805 803 800 799 799 798 798 798 796 795 792 791 788 787 785 783 782 781 779 777 776 776 776 764 756 754 747 747 747 746 746 746 748 748 752 751
812 813 812 810 811 811 811 809 807 805 805 803 801 799 799 798 797 794 791 790 788 786 784 783 781 780 779 775 774 775 772 772 762 752 746 746 746 743 744 743 744 743 743
812 812 812 811 811 813 814 812 810 809 808 806 804 802 800 799 797 795 793 790 787 786 785 783 780 779 777 776 775 773 771 767 766 761 750 743 741 741 740 737 736 735 733
812 812 812 811 813 815 815 814 813 812 809 808 806 804 802 800 799 797 795 791 789 787 785 782 779 778 776 775 773 773 770 768 764 764 758 750 747 738 735 732 729 727 725